Wind_Speed
22 19 18 19 20 18 19 21 17 12 9 9 15 22 21 16 14 13 13 13 12 13 14 15 15 16 16 17 17 16 16 16 17 18 19 20 20 21 21 21 21 21 20 19 19 19 19 19 19 19 19 18 18 17 17 16 16 16 16 17 16 16 16
21 18 17 18 19 19 18 17 14 9 9 13 19 22 20 17 16 16 15 14 13 14 15 16 17 17 17 17 17 16 16 16 17 18 19 20 20 21 22 22 23 24 24 23 23 22 22 21 21 21 21 21 20 20 20 19 19 18 18 18 19 18 18
21 20 19 19 19 19 18 15 12 11 13 16 20 20 19 19 18 19 18 16 15 16 16 16 17 17 17 17 17 17 17 17 18 18 20 21 22 22 23 23 24 25 26 26 26 26 25 24 24 24 24 23 23 22 22 22 21 21 20 20 20 20 20
22 21 20 20 19 18 18 16 14 13 14 16 17 17 18 18 19 20 19 19 18 19 19 17 16 16 17 18 19 19 19 19 20 21 22 23 24 25 26 26 27 27 28 29 29 28 28 28 28 27 27 27 26 25 25 25 24 24 23 23 22 22 22
23 22 21 20 19 17 17 16 15 15 15 15 15 16 17 17 18 19 19 20 19 20 21 20 17 18 19 20 21 22 22 22 23 24 26 27 27 28 29 30 30 31 32 32 32 32 31 31 31 31 31 31 31 30 29 28 27 27 27 27 26 25 24
24 22 22 20 18 17 15 15 15 16 15 16 16 17 18 18 17 18 18 19 19 19 20 21 21 23 24 24 24 25 25 26 27 28 30 31 31 31 31 31 32 33 34 35 35 35 34 34 34 34 34 34 33 33 33 31 30 30 30 29 29 28 27
25 23 21 19 17 16 15 14 15 16 16 16 17 18 19 18 18 18 19 19 19 20 21 22 24 26 27 27 28 29 30 30 31 32 33 34 34 34 34 34 34 34 34 35 36 36 36 35 35 35 35 35 35 35 35 35 34 33 32 32 31 31 30
25 22 20 19 19 18 17 16 15 15 15 16 18 19 20 20 20 21 22 22 22 23 24 25 27 28 29 30 31 32 33 34 34 35 35 36 36 36 36 36 36 35 35 35 36 36 37 36 36 36 36 36 36 36 36 36 36 36 36 35 34 33 33
21 19 19 20 20 18 17 16 15 14 16 17 19 20 21 22 23 24 25 25 26 26 27 28 29 30 31 32 33 34 35 36 37 38 38 38 38 38 38 38 39 38 38 38 38 38 38 38 38 38 38 38 38 38 38 37 37 38 38 38 37 37 36
19 18 19 20 19 16 16 17 17 17 19 20 20 22 23 24 25 26 26 26 27 27 28 29 30 32 33 34 36 37 38 39 39 40 41 41 41 41 42 42 42 42 41 41 41 41 40 40 40 40 40 40 39 40 39 39 38 38 39 39 39 39 39
16 17 18 19 19 18 19 20 19 20 22 23 23 24 25 26 27 28 29 29 29 30 31 31 32 33 34 35 37 38 40 41 41 42 43 44 44 44 44 44 44 44 44 44 44 43 43 42 42 41 41 40 40 40 40 40 39 39 39 39 39 39 40
15 17 18 19 20 20 22 23 22 23 24 25 26 27 27 28 29 30 31 31 32 33 34 35 36 36 37 38 38 39 40 41 42 43 44 45 46 46 47 47 47 47 47 46 46 46 45 45 44 43 43 42 41 40 40 40 40 39 39 39 38 39 40
17 19 19 20 20 21 22 23 23 24 25 26 27 27 28 29 30 31 32 32 33 34 35 37 38 39 40 41 42 43 44 44 45 46 46 47 48 48 49 49 50 50 50 49 49 48 48 47 47 46 45 44 43 42 41 40 39 39 39 39 38 38 39
18 19 20 21 21 21 22 22 22 23 24 25 26 27 28 29 30 31 32 33 34 36 37 38 40 41 42 43 44 45 45 46 47 48 48 49 50 50 51 51 51 52 52 52 52 51 51 50 50 49 48 47 46 45 44 42 41 40 39 39 39 38 38
19 20 21 21 21 21 21 21 22 23 24 25 26 28 29 30 31 32 34 35 37 38 39 39 40 41 42 42 43 43 44 44 45 46 47 48 49 50 51 51 52 52 52 53 53 53 53 52 52 51 51 50 49 48 47 45 44 42 41 41 40 39 39
22 22 21 21 21 21 22 23 24 25 26 27 28 30 31 33 34 35 36 37 38 38 39 39 39 39 39 39 39 39 39 39 40 40 41 42 43 44 45 46 47 48 48 49 50 50 50 51 50 50 50 50 50 50 49 48 47 46 44 43 42 41 41
24 22 22 22 23 24 25 26 26 27 28 29 31 33 35 36 37 37 37 38 37 37 37 36 35 35 34 33 33 32 32 33 33 34 34 35 35 36 37 38 39 40 41 43 44 44 45 45 46 46 46 46 46 46 47 47 47 47 46 46 45 44 43
24 23 24 25 26 27 27 28 28 29 31 33 34 36 37 38 38 38 37 36 35 34 33 31 31 31 30 30 30 30 31 31 32 32 32 32 33 33 34 34 35 35 36 38 39 40 41 41 40 40 40 41 41 41 41 42 42 43 44 45 45 45 45
25 25 26 27 28 29 29 30 31 32 34 35 37 38 38 38 37 36 34 32 31 30 30 30 30 30 30 30 30 30 30 30 31 31 31 32 32 32 32 32 33 34 34 36 37 37 38 38 38 37 37 36 36 36 37 37 37 38 39 40 41 42 43
27 27 28 29 29 30 31 32 33 35 36 37 37 37 37 36 34 32 30 29 29 29 30 30 30 30 29 29 29 30 30 30 31 31 31 31 31 31 32 32 33 34 34 35 35 34 34 35 35 35 35 34 34 34 34 34 34 34 35 36 37 38 39
28 28 28 28 29 31 32 33 34 36 36 37 37 36 35 33 31 29 28 28 29 31 31 30 28 28 27 28 29 30 31 31 31 31 31 31 32 32 33 33 34 34 33 33 32 30 30 31 32 32 33 33 32 31 31 30 31 31 31 32 33 34 35
27 27 27 28 30 31 32 33 35 36 36 35 35 33 31 30 29 28 27 28 30 30 29 28 27 27 28 29 30 31 31 32 32 32 32 32 33 33 33 33 33 33 32 31 30 28 27 27 28 29 30 29 28 27 27 27 28 28 28 28 29 30 31
29 29 30 31 32 33 33 34 35 35 35 34 32 30 28 28 27 27 27 28 28 28 28 27 27 28 29 29 30 31 32 32 33 33 33 33 33 33 33 32 32 31 31 30 28 27 26 26 26 27 27 26 26 26 26 27 27 27 27 27 27 27 28
32 33 34 35 35 36 35 36 36 36 34 31 29 28 27 27 27 27 27 27 28 28 28 28 28 29 29 30 31 31 32 32 32 32 32 32 32 32 31 31 30 30 29 28 27 27 26 26 26 26 26 26 26 27 27 27 27 27 26 26 26 26 26
35 35 36 37 37 37 37 38 37 36 33 30 28 27 27 27 28 27 27 27 28 28 29 29 29 30 30 30 31 31 30 30 29 29 28 29 29 29 28 28 28 27 27 26 26 26 26 26 27 27 27 27 27 28 28 27 26 26 26 25 25 25 26
37 37 37 38 38 38 38 38 37 34 31 29 28 28 28 28 28 27 27 27 28 28 29 29 29 29 30 30 29 28 27 27 26 26 26 26 27 27 26 26 25 25 24 24 24 24 25 25 25 26 26 26 27 27 27 27 26 25 25 24 24 24 25
38 38 38 39 39 39 38 37 34 31 29 29 29 29 29 29 28 28 27 27 27 28 28 28 28 29 28 27 26 25 25 25 24 24 24 25 25 25 25 24 24 23 23 22 22 23 23 23 23 23 24 24 24 25 26 26 26 25 24 24 23 23 23
38 38 39 39 39 39 38 36 32 29 28 29 30 30 30 30 29 28 26 26 28 28 28 28 27 27 26 25 24 24 24 24 23 23 23 23 23 23 23 22 22 22 22 22 23 23 23 23 23 23 23 22 22 22 23 24 25 25 24 24 23 23 23
37 38 38 38 37 37 36 33 30 28 29 29 30 30 30 30 29 28 26 26 27 28 28 27 26 24 24 24 23 23 23 23 23 22 22 22 22 22 21 21 21 21 21 22 22 23 23 23 23 23 23 23 22 22 22 22 22 23 23 23 23 23 23
37 37 38 37 36 35 34 31 29 28 29 29 29 28 29 29 28 27 26 27 27 27 27 26 24 22 22 23 23 23 22 22 22 22 21 21 21 20 20 20 20 20 20 20 21 21 22 22 23 23 23 23 23 22 22 22 22 22 22 21 21 22 22
38 38 38 37 36 35 32 30 29 29 29 29 28 27 28 28 28 27 26 27 27 26 26 24 23 21 21 22 22 22 21 21 21 21 21 20 20 19 19 19 19 20 20 21 21 21 21 22 23 23 23 23 23 23 23 23 22 22 22 21 21 20 20
38 38 37 35 34 33 31 29 28 29 29 29 28 28 29 29 28 27 27 26 26 26 25 23 22 21 21 21 22 22 21 21 21 20 20 20 19 19 19 19 20 21 21 22 22 22 22 22 23 24 24 24 24 24 24 24 24 24 23 23 22 21 20
37 36 34 32 31 31 30 28 28 28 29 29 29 29 29 28 27 27 26 25 25 25 24 22 21 21 21 21 21 21 21 20 20 20 20 20 20 20 20 20 21 22 22 23 23 22 22 22 23 24 24 25 25 25 25 25 25 25 25 25 24 23 23
36 34 32 31 30 30 30 28 28 29 29 29 28 28 27 26 26 25 25 24 25 24 23 22 22 22 21 21 21 21 20 20 20 20 20 20 20 20 21 22 22 23 23 23 23 23 22 22 22 22 23 24 25 25 26 26 26 26 26 26 26 25 25
34 32 31 30 29 29 29 28 28 29 28 27 26 25 25 24 25 25 24 24 24 24 23 22 22 22 22 21 21 21 20 20 20 20 21 21 21 21 22 22 22 22 22 22 22 22 22 22 22 23 23 24 25 26 27 27 27 27 27 27 27 27 26
32 30 29 29 28 27 27 26 27 27 27 26 25 24 24 24 25 25 24 23 23 23 23 22 22 22 22 22 21 21 21 20 21 21 21 22 22 22 22 22 21 21 21 21 21 22 24 25 25 26 27 27 28 28 28 28 28 28 28 28 28 28 27
30 29 29 28 27 26 26 26 26 27 27 26 25 25 25 25 25 24 24 23 23 23 22 22 22 22 22 22 22 21 21 21 21 22 22 22 22 22 21 20 20 20 20 21 23 24 26 28 28 29 29 30 31 31 31 30 30 30 30 30 30 30 29
30 29 28 27 27 27 26 26 27 28 28 28 27 26 25 25 25 24 23 22 21 21 21 21 21 21 22 22 21 21 20 20 20 21 21 21 20 20 19 19 19 20 21 23 24 26 28 30 31 32 32 32 33 33 33 33 33 33 32 32 32 31 31
Wind_Direction
338 343 343 342 339 337 339 338 324 290 264 271 304 314 310 302 302 307 315 318 318 318 316 318 319 319 317 314 313 313 312 312 310 309 307 305 303 301 301 302 302 302 302 301 301 300 300 299 297 296 295 294 294 292 290 290 289 290 291 292 291 290 288
335 339 339 339 338 336 338 343 338 313 285 287 299 307 307 303 298 300 308 312 311 312 312 312 315 317 315 314 313 310 308 307 305 304 303 301 299 296 294 293 293 294 294 294 295 295 295 295 294 293 292 292 292 290 289 287 285 285 285 287 288 289 288
331 333 333 334 333 332 333 336 333 318 303 298 300 304 308 306 298 297 302 302 301 304 307 309 309 309 309 309 309 307 304 302 302 302 302 300 299 297 294 291 289 288 288 289 289 290 290 290 290 289 289 289 289 289 287 286 284 282 281 280 282 283 283
328 327 327 327 327 326 325 325 321 314 305 301 303 308 311 307 301 302 305 305 301 298 298 299 300 300 301 300 300 300 298 296 297 298 298 297 296 295 294 292 291 289 288 287 287 287 288 288 287 286 286 286 286 286 285 284 282 281 279 278 277 278 279
324 322 321 321 322 321 318 315 310 305 302 303 308 312 312 309 306 307 311 313 310 301 293 292 295 300 301 298 295 293 291 291 291 292 292 291 291 290 290 290 290 290 289 288 287 286 286 286 285 285 284 285 285 284 283 281 280 278 278 277 277 276 275
320 319 319 318 317 314 311 307 302 299 301 305 309 312 310 308 308 310 312 313 312 306 297 295 297 300 301 299 296 293 291 291 291 291 291 290 289 288 287 287 286 286 286 286 286 286 285 284 283 283 282 282 283 283 282 281 279 277 276 276 276 275 273
319 316 317 316 312 312 311 306 301 302 304 308 310 311 310 309 310 312 311 307 305 303 300 298 297 297 298 298 297 295 295 294 292 292 291 290 290 290 289 288 286 285 284 283 283 284 283 283 282 281 281 280 280 280 280 280 279 278 276 275 274 274 273
319 315 316 315 314 317 316 311 308 306 306 309 310 310 310 310 312 312 308 306 304 302 300 299 298 298 298 298 297 297 297 296 294 293 292 292 292 291 291 290 288 287 285 283 282 281 281 281 280 280 280 279 279 278 278 278 278 278 277 276 274 273 272
319 317 318 318 319 322 320 316 312 307 307 310 310 309 308 309 310 308 306 305 303 302 301 300 299 299 299 298 298 298 297 296 296 295 295 294 293 293 291 290 289 288 287 286 284 282 281 280 279 279 278 278 277 277 276 276 276 276 275 275 274 273 271
319 320 323 322 320 321 320 316 312 309 311 314 312 310 308 306 305 305 305 305 304 302 301 299 298 298 298 299 299 298 297 297 296 295 295 294 294 293 292 291 290 289 287 286 285 283 282 281 280 279 278 276 276 276 275 274 273 272 272 272 272 271 271
322 327 328 324 320 320 319 317 313 311 314 314 313 311 308 307 307 307 308 308 307 305 303 301 300 298 297 297 296 296 295 295 295 295 294 294 293 292 291 290 289 288 287 286 285 284 283 282 281 280 279 278 276 275 274 273 272 271 270 269 269 269 268
328 331 328 322 319 317 317 317 315 313 313 312 311 310 309 308 308 308 308 308 307 307 305 304 303 302 300 299 297 295 294 293 293 292 291 291 290 289 289 288 287 287 286 285 284 284 283 282 281 280 279 279 277 276 274 273 272 271 270 268 267 266 266
326 327 323 320 317 313 311 312 311 309 307 307 308 309 308 308 307 306 307 307 306 305 304 304 303 302 301 299 298 297 295 294 292 291 289 288 287 286 286 285 285 285 284 284 283 282 282 281 280 279 278 277 276 275 274 273 271 270 269 268 267 265 265
322 321 319 316 314 309 306 306 304 303 303 304 305 306 305 305 304 305 305 304 303 303 302 301 300 298 297 296 294 293 292 291 290 289 288 287 286 285 284 284 283 282 282 282 281 281 280 280 279 278 277 276 275 274 273 271 270 269 268 267 266 265 264
321 319 316 314 310 306 303 302 302 303 304 304 304 303 303 303 303 303 303 302 302 302 301 299 297 296 295 294 292 291 290 289 288 287 286 285 285 285 285 285 284 284 283 282 281 281 280 279 279 278 277 276 274 273 272 271 269 267 266 265 265 264 263
322 320 317 314 310 306 306 307 308 308 308 306 305 304 304 305 305 305 305 304 303 302 301 299 298 298 297 296 295 294 293 292 291 290 289 288 287 287 287 287 287 287 286 286 285 284 283 282 281 280 279 277 275 274 272 271 270 268 266 265 263 262 262
322 320 317 314 311 309 310 312 313 311 309 307 307 308 308 308 309 308 308 307 305 304 303 303 303 302 303 302 302 301 301 300 299 298 297 296 295 294 293 292 292 291 290 290 289 288 287 286 285 285 284 282 280 278 275 273 271 269 267 265 263 262 261
322 320 316 313 312 313 314 315 315 312 310 310 311 311 311 311 311 311 310 309 308 308 308 309 308 308 308 308 307 307 307 307 306 305 304 303 302 301 300 298 297 296 295 294 293 291 289 288 288 288 288 287 286 284 282 279 275 272 269 267 264 262 260
322 319 315 314 314 315 317 317 315 313 312 313 313 312 312 312 312 312 312 311 311 312 312 311 310 310 310 310 310 310 311 310 309 308 307 306 306 304 303 301 300 300 299 298 297 293 290 287 286 287 288 289 289 289 287 284 280 276 272 268 266 263 261
319 316 315 316 316 317 317 316 314 313 313 313 313 313 313 313 313 313 314 314 314 315 314 313 312 312 312 313 313 313 313 312 312 311 310 309 308 306 305 304 303 302 301 302 301 296 289 285 284 285 286 288 289 289 288 286 284 280 276 272 268 264 261
315 313 314 315 315 315 315 314 313 313 313 313 313 313 313 313 314 315 316 316 318 318 318 317 317 316 316 315 315 315 315 314 314 313 312 311 310 308 308 306 305 304 304 305 305 300 291 286 285 285 287 288 289 288 288 287 286 283 280 277 272 268 264
311 311 313 314 314 314 315 315 313 313 314 315 314 314 314 314 315 316 317 319 321 322 321 320 319 318 318 317 317 316 316 316 315 315 313 312 311 310 310 308 308 308 308 308 308 304 297 291 289 288 289 289 290 291 291 291 290 288 285 281 277 273 268
314 316 317 317 317 317 317 316 314 314 316 316 315 315 315 314 315 315 316 318 321 323 323 322 320 319 318 317 317 317 316 316 316 315 315 314 313 312 311 311 310 310 309 310 310 307 302 297 294 292 291 291 291 293 294 294 293 292 289 286 282 278 274
319 320 320 319 319 319 318 317 316 317 319 317 315 315 314 313 314 314 314 316 319 322 323 322 321 319 318 318 318 318 319 319 318 318 318 317 316 316 315 314 313 312 310 310 309 308 305 302 299 297 296 295 294 294 295 294 293 291 290 287 285 283 280
318 319 319 319 319 319 319 319 319 320 319 317 314 313 313 312 313 313 313 314 317 319 320 320 319 319 318 319 320 321 322 322 322 323 323 322 321 321 321 320 319 317 315 312 310 308 306 304 302 301 300 299 297 296 295 294 292 290 288 286 284 283 281
318 319 320 320 319 320 319 319 320 320 317 315 313 313 313 312 312 312 311 312 315 318 318 318 318 319 319 320 322 323 324 324 326 327 326 325 325 326 326 327 326 325 323 321 319 316 313 311 308 305 303 300 298 296 295 295 294 292 290 286 283 281 279
318 320 320 319 319 319 319 319 319 317 313 312 312 312 312 311 310 310 310 312 315 317 317 318 318 319 319 320 323 325 325 325 327 327 326 327 328 329 330 330 329 330 331 331 331 329 328 326 323 320 315 310 304 300 296 295 294 293 292 290 286 283 280
318 319 318 318 319 319 318 317 316 314 311 311 311 311 311 310 310 310 311 313 315 316 317 318 319 319 319 321 324 325 324 324 325 326 327 328 328 329 330 330 330 333 335 337 337 336 337 338 337 335 332 329 324 317 308 302 298 296 294 291 288 285 282
317 317 316 318 319 317 315 314 313 311 310 311 311 311 311 311 311 310 311 313 314 315 316 317 318 318 318 322 325 325 322 322 323 325 327 328 327 327 329 331 332 334 336 337 337 337 338 340 340 339 339 338 337 333 328 323 316 311 306 300 294 289 286
317 316 317 319 318 315 313 312 311 311 310 310 310 310 310 311 311 311 311 311 312 314 315 315 316 317 319 322 323 322 320 320 321 324 325 325 324 325 327 330 331 332 333 334 334 334 335 336 336 336 336 337 337 337 336 334 332 328 323 317 310 302 296
318 318 319 319 318 314 312 312 311 310 310 310 310 310 309 310 311 311 310 310 311 313 314 314 315 316 319 320 320 320 318 317 319 321 322 322 322 323 325 328 328 328 328 328 328 329 330 329 329 329 330 331 332 332 332 332 332 331 329 326 323 318 311
318 318 319 318 315 312 310 309 308 307 308 308 309 309 309 309 309 309 309 310 311 312 313 313 314 316 318 319 319 317 316 315 317 319 320 320 320 321 323 325 324 323 323 323 324 325 325 325 325 325 326 327 327 327 327 326 326 325 324 324 323 321 319
317 318 318 315 312 309 307 306 306 306 308 309 309 309 310 310 309 309 310 311 312 313 313 313 314 315 316 317 316 315 314 315 316 317 318 317 317 319 321 322 321 321 321 321 322 323 324 325 326 326 326 326 326 325 325 324 323 321 321 320 319 318 318
318 318 316 313 310 308 307 307 309 311 312 312 312 313 313 313 312 311 313 313 313 314 314 314 314 315 315 315 314 313 312 313 315 316 316 315 316 318 320 320 320 320 320 321 322 324 324 325 327 327 327 325 325 325 324 323 322 321 320 319 317 316 314
318 317 315 313 311 308 308 309 312 314 314 315 315 317 317 317 315 315 315 315 315 316 315 315 315 314 314 313 313 311 310 311 312 313 313 313 315 317 318 319 319 320 321 323 324 324 324 324 326 326 325 323 322 322 321 320 320 319 318 318 316 315 312
318 317 315 313 311 308 307 309 313 316 318 319 319 320 320 318 317 316 316 316 317 317 316 315 315 315 314 313 311 310 309 308 308 308 308 310 313 314 316 318 319 320 322 323 323 323 323 323 324 324 323 321 319 318 317 316 316 315 314 313 313 312 311
319 318 316 314 312 308 307 308 312 317 321 323 323 322 321 320 318 316 315 316 318 318 316 315 315 315 314 312 310 309 308 306 305 305 306 309 311 313 315 318 319 321 322 322 323 324 323 323 323 322 321 320 318 317 316 314 313 312 311 310 309 309 308
320 320 319 318 315 312 310 310 313 316 319 321 322 322 321 319 317 315 314 315 317 317 315 315 315 313 311 310 309 309 308 306 306 306 307 309 311 313 316 319 320 321 322 323 324 324 324 323 323 322 321 320 318 317 316 314 313 311 310 308 307 306 305
Height
5916 5914 5912 5910 5908 5906 5905 5902 5900 5899 5900 5900 5899 5900 5899 5898 5896 5895 5893 5891 5890 5889 5888 5887 5886 5885 5884 5883 5881 5879 5877 5876 5875 5873 5872 5871 5870 5869 5868 5867 5867 5866 5866 5865 5865 5864 5863 5863 5862 5862 5861 5860 5859 5858 5857 5857 5856 5855 5854 5853 5852 5851 5851
5915 5913 5911 5909 5907 5905 5904 5902 5901 5900 5900 5899 5899 5899 5897 5896 5895 5893 5892 5890 5888 5887 5886 5885 5884 5883 5882 5880 5879 5877 5876 5874 5873 5872 5871 5870 5868 5867 5866 5866 5865 5864 5863 5863 5862 5862 5861 5860 5860 5859 5858 5858 5857 5856 5855 5854 5853 5852 5852 5850 5849 5849 5848
5913 5911 5909 5907 5905 5904 5902 5901 5900 5900 5899 5899 5898 5897 5895 5893 5892 5891 5890 5888 5886 5884 5883 5883 5882 5881 5879 5878 5877 5875 5874 5873 5871 5870 5869 5868 5866 5865 5864 5863 5862 5861 5861 5860 5859 5859 5858 5857 5857 5856 5855 5854 5854 5853 5852 5851 5850 5849 5849 5848 5847 5846 5845
5912 5910 5908 5906 5904 5903 5901 5900 5899 5898 5898 5897 5896 5894 5893 5891 5890 5889 5887 5886 5884 5882 5880 5880 5879 5878 5877 5876 5874 5873 5872 5870 5869 5868 5867 5865 5864 5862 5861 5860 5859 5858 5857 5856 5856 5855 5854 5854 5853 5852 5851 5850 5849 5849 5848 5848 5847 5846 5845 5845 5845 5844 5843
5910 5908 5907 5905 5903 5902 5900 5899 5898 5897 5896 5895 5893 5892 5890 5889 5888 5887 5885 5883 5881 5879 5877 5876 5876 5875 5874 5873 5872 5870 5869 5867 5866 5865 5863 5862 5861 5859 5858 5857 5856 5854 5853 5852 5852 5851 5850 5850 5848 5848 5847 5846 5845 5844 5844 5843 5843 5842 5842 5841 5841 5841 5840
5907 5906 5905 5904 5902 5900 5899 5898 5896 5895 5894 5892 5890 5889 5888 5887 5886 5884 5883 5881 5879 5876 5874 5873 5873 5872 5871 5870 5868 5867 5865 5864 5862 5861 5860 5858 5857 5856 5854 5853 5852 5850 5849 5848 5847 5846 5846 5845 5844 5843 5842 5842 5841 5840 5839 5838 5838 5838 5837 5837 5837 5837 5836
5903 5903 5902 5901 5899 5898 5897 5895 5894 5892 5890 5889 5887 5887 5885 5884 5883 5881 5880 5878 5876 5874 5873 5871 5870 5869 5867 5866 5864 5863 5861 5859 5858 5856 5855 5853 5852 5851 5850 5848 5847 5846 5845 5843 5842 5841 5840 5839 5839 5838 5837 5836 5836 5835 5834 5833 5833 5832 5832 5832 5832 5832 5831
5900 5899 5898 5897 5896 5895 5894 5893 5891 5889 5888 5886 5885 5884 5883 5881 5880 5878 5876 5875 5873 5872 5870 5869 5867 5865 5864 5862 5860 5858 5856 5854 5853 5851 5850 5849 5847 5846 5844 5843 5842 5841 5840 5838 5837 5836 5835 5834 5833 5832 5832 5831 5830 5830 5829 5829 5828 5827 5827 5827 5827 5826 5826
5898 5897 5896 5895 5894 5893 5891 5890 5889 5888 5886 5884 5883 5882 5880 5878 5877 5875 5873 5871 5870 5868 5867 5865 5863 5861 5859 5857 5855 5853 5851 5849 5848 5846 5845 5843 5842 5840 5839 5837 5836 5834 5833 5832 5831 5830 5829 5828 5827 5826 5826 5825 5824 5824 5824 5823 5823 5822 5821 5821 5820 5820 5820
5896 5895 5894 5893 5892 5891 5889 5887 5886 5885 5883 5881 5880 5879 5877 5876 5873 5871 5869 5868 5866 5865 5863 5861 5859 5857 5855 5852 5850 5848 5846 5844 5843 5841 5839 5837 5836 5834 5832 5831 5829 5828 5827 5826 5824 5823 5822 5821 5820 5820 5819 5819 5818 5818 5817 5817 5816 5816 5815 5815 5814 5814 5813
5893 5892 5891 5890 5889 5888 5886 5884 5883 5881 5880 5878 5877 5875 5874 5872 5869 5867 5865 5863 5862 5860 5858 5856 5854 5852 5850 5848 5846 5844 5842 5840 5837 5835 5833 5831 5829 5827 5826 5824 5822 5821 5820 5818 5817 5816 5815 5814 5813 5812 5812 5812 5812 5811 5810 5810 5810 5809 5809 5808 5808 5807 5807
5891 5890 5889 5888 5887 5885 5883 5881 5880 5878 5876 5875 5873 5872 5870 5868 5865 5863 5861 5859 5857 5855 5853 5851 5849 5847 5845 5843 5841 5839 5837 5834 5832 5830 5828 5825 5823 5821 5819 5817 5816 5814 5812 5811 5810 5809 5808 5807 5806 5805 5805 5804 5804 5804 5803 5803 5802 5802 5802 5802 5802 5801 5800
5889 5888 5887 5886 5884 5883 5881 5879 5878 5876 5874 5872 5870 5868 5866 5864 5862 5859 5857 5855 5853 5851 5849 5846 5844 5842 5840 5837 5835 5832 5830 5828 5826 5824 5821 5819 5817 5814 5812 5810 5808 5807 5805 5804 5802 5801 5800 5799 5798 5798 5797 5797 5796 5796 5796 5796 5796 5795 5795 5795 5795 5794 5794
5888 5887 5886 5884 5882 5881 5879 5877 5876 5874 5872 5870 5868 5866 5864 5861 5859 5857 5854 5852 5850 5847 5845 5842 5840 5837 5835 5832 5829 5827 5824 5822 5819 5817 5814 5812 5810 5807 5805 5803 5801 5799 5798 5796 5795 5793 5792 5791 5790 5789 5789 5789 5788 5788 5788 5788 5788 5788 5788 5788 5788 5788 5787
5887 5885 5884 5882 5880 5878 5876 5875 5873 5871 5869 5867 5865 5863 5860 5858 5856 5853 5851 5848 5845 5843 5840 5837 5834 5832 5829 5827 5824 5821 5818 5816 5813 5811 5808 5805 5803 5801 5798 5796 5793 5792 5790 5788 5787 5785 5784 5783 5783 5782 5781 5781 5780 5780 5780 5780 5780 5781 5781 5780 5781 5781 5781
5885 5883 5881 5879 5877 5874 5873 5871 5869 5867 5865 5863 5861 5858 5856 5853 5851 5848 5845 5842 5840 5837 5834 5831 5828 5825 5823 5820 5817 5815 5812 5810 5807 5805 5802 5800 5797 5795 5793 5790 5787 5785 5783 5781 5779 5778 5776 5775 5774 5773 5773 5772 5772 5772 5772 5772 5772 5772 5773 5773 5773 5773 5773
5882 5880 5878 5875 5872 5870 5868 5866 5865 5862 5860 5858 5855 5852 5850 5847 5844 5842 5839 5836 5833 5831 5828 5825 5822 5820 5817 5814 5812 5809 5807 5804 5802 5799 5797 5795 5793 5791 5788 5785 5783 5781 5778 5776 5774 5772 5770 5769 5767 5766 5765 5765 5764 5764 5764 5764 5764 5764 5764 5764 5765 5765 5766
5878 5876 5873 5870 5867 5865 5863 5862 5859 5857 5854 5852 5849 5847 5844 5841 5839 5836 5833 5830 5828 5825 5822 5820 5817 5814 5812 5810 5807 5804 5802 5799 5797 5794 5792 5790 5788 5786 5783 5781 5779 5777 5774 5772 5769 5767 5765 5764 5762 5760 5759 5758 5758 5757 5757 5756 5756 5755 5756 5756 5756 5757 5758
5873 5870 5867 5865 5863 5861 5859 5856 5854 5851 5849 5847 5844 5841 5839 5836 5833 5831 5828 5826 5823 5821 5818 5816 5813 5810 5808 5805 5802 5800 5798 5795 5793 5790 5788 5786 5784 5781 5779 5776 5774 5772 5770 5767 5765 5762 5760 5759 5757 5756 5754 5754 5753 5752 5750 5749 5748 5748 5748 5748 5748 5749 5749
5868 5866 5863 5861 5858 5856 5854 5852 5849 5847 5844 5842 5839 5837 5834 5831 5828 5826 5824 5822 5819 5817 5814 5812 5809 5806 5804 5801 5799 5796 5794 5791 5789 5786 5784 5782 5779 5777 5775 5772 5770 5767 5765 5762 5760 5757 5755 5753 5752 5751 5750 5749 5748 5747 5745 5743 5742 5741 5741 5741 5741 5741 5741
5864 5862 5860 5858 5856 5853 5851 5849 5846 5843 5841 5838 5835 5832 5829 5826 5824 5822 5820 5817 5815 5812 5809 5807 5804 5802 5800 5797 5795 5793 5790 5787 5785 5782 5780 5778 5775 5772 5770 5767 5765 5762 5760 5758 5755 5752 5750 5749 5748 5747 5745 5745 5744 5742 5740 5739 5737 5737 5736 5735 5734 5734 5734
5861 5859 5857 5855 5853 5851 5848 5845 5841 5839 5836 5833 5830 5827 5824 5822 5820 5818 5815 5813 5811 5808 5805 5803 5801 5798 5796 5794 5791 5789 5786 5784 5781 5778 5776 5773 5770 5768 5765 5762 5760 5758 5755 5753 5750 5748 5746 5745 5744 5742 5741 5740 5739 5737 5736 5735 5733 5732 5732 5730 5729 5729 5728
5856 5855 5852 5850 5848 5846 5844 5840 5837 5834 5832 5829 5825 5823 5820 5818 5816 5814 5812 5809 5807 5804 5802 5799 5797 5795 5793 5790 5788 5785 5783 5780 5777 5774 5772 5769 5766 5763 5761 5758 5756 5753 5751 5749 5746 5744 5743 5741 5739 5738 5737 5736 5735 5733 5732 5731 5729 5728 5727 5726 5725 5724 5723
5850 5848 5846 5844 5842 5840 5838 5835 5832 5829 5826 5824 5821 5819 5817 5814 5812 5810 5808 5806 5803 5801 5798 5796 5794 5791 5789 5787 5784 5781 5779 5776 5773 5771 5768 5765 5762 5760 5757 5754 5752 5750 5747 5745 5743 5741 5739 5737 5735 5734 5733 5732 5731 5729 5728 5727 5725 5724 5723 5722 5721 5720 5719
5846 5844 5842 5840 5838 5835 5832 5830 5827 5824 5821 5819 5817 5815 5813 5811 5809 5807 5804 5802 5800 5797 5795 5792 5790 5788 5785 5783 5780 5778 5775 5772 5770 5767 5765 5762 5759 5757 5754 5751 5749 5746 5744 5742 5740 5737 5735 5734 5732 5731 5729 5728 5727 5725 5724 5723 5722 5720 5719 5718 5717 5716 5716
5841 5839 5837 5835 5832 5830 5827 5825 5822 5819 5817 5815 5813 5811 5809 5807 5805 5803 5801 5798 5796 5794 5791 5789 5787 5784 5781 5779 5776 5774 5772 5769 5767 5765 5762 5759 5757 5754 5751 5749 5746 5744 5741 5739 5737 5734 5732 5731 5729 5727 5726 5724 5723 5721 5719 5718 5717 5716 5715 5714 5714 5713 5712
5836 5834 5832 5830 5827 5825 5823 5821 5818 5816 5813 5811 5809 5807 5805 5803 5801 5799 5797 5795 5792 5790 5788 5785 5783 5780 5778 5776 5774 5771 5769 5766 5764 5762 5760 5757 5754 5752 5749 5747 5744 5742 5739 5737 5734 5732 5730 5728 5726 5724 5722 5720 5719 5717 5716 5714 5713 5712 5711 5710 5710 5709 5708
5833 5831 5828 5826 5823 5820 5817 5816 5814 5812 5810 5808 5806 5804 5801 5799 5797 5795 5793 5791 5789 5787 5784 5782 5780 5777 5775 5773 5771 5768 5766 5764 5762 5760 5757 5755 5752 5750 5748 5745 5743 5740 5738 5735 5733 5730 5728 5726 5724 5722 5719 5717 5715 5714 5712 5710 5709 5708 5707 5706 5706 5705 5704
5830 5827 5825 5823 5820 5816 5813 5811 5810 5808 5806 5804 5802 5800 5797 5795 5793 5791 5789 5787 5785 5783 5781 5778 5776 5774 5772 5769 5768 5765 5763 5761 5759 5757 5755 5753 5750 5748 5746 5744 5741 5739 5736 5734 5732 5729 5727 5725 5722 5720 5718 5716 5714 5712 5709 5708 5706 5705 5703 5702 5701 5701 5700
5827 5824 5821 5819 5816 5813 5810 5808 5806 5804 5802 5800 5798 5796 5794 5791 5789 5788 5786 5784 5782 5780 5777 5775 5773 5771 5769 5767 5765 5763 5761 5759 5757 5755 5753 5751 5749 5747 5744 5742 5740 5737 5735 5733 5731 5728 5726 5724 5721 5719 5717 5714 5712 5710 5708 5706 5704 5702 5701 5699 5698 5697 5696
5822 5819 5816 5814 5811 5808 5806 5804 5803 5800 5798 5796 5795 5793 5790 5788 5786 5784 5782 5781 5779 5776 5774 5772 5770 5768 5766 5764 5762 5760 5758 5756 5755 5753 5751 5749 5747 5745 5742 5740 5738 5736 5734 5732 5730 5727 5725 5723 5720 5718 5716 5713 5711 5709 5707 5705 5703 5701 5699 5697 5695 5694 5693
5818 5815 5813 5810 5807 5805 5803 5801 5800 5798 5795 5793 5791 5789 5787 5785 5783 5781 5779 5777 5775 5773 5771 5769 5767 5765 5763 5761 5759 5757 5756 5754 5752 5750 5749 5747 5745 5743 5740 5739 5736 5734 5732 5730 5728 5726 5724 5721 5719 5716 5714 5712 5710 5707 5705 5703 5701 5699 5697 5695 5693 5692 5690
5816 5813 5810 5807 5804 5802 5800 5799 5797 5794 5792 5790 5788 5785 5783 5781 5779 5777 5775 5773 5771 5769 5767 5766 5764 5762 5760 5758 5757 5755 5753 5752 5750 5748 5746 5745 5743 5740 5738 5737 5734 5732 5730 5728 5726 5724 5722 5719 5717 5715 5712 5710 5708 5705 5703 5701 5699 5696 5695 5693 5691 5689 5687
5813 5810 5807 5804 5801 5798 5796 5795 5793 5791 5788 5786 5784 5782 5780 5777 5775 5774 5772 5770 5768 5766 5764 5763 5761 5759 5757 5756 5754 5752 5751 5749 5747 5746 5744 5742 5740 5738 5736 5734 5732 5730 5728 5726 5724 5721 5719 5717 5716 5713 5711 5708 5706 5703 5701 5699 5697 5695 5692 5690 5688 5686 5684
5810 5807 5803 5800 5798 5795 5793 5791 5789 5787 5785 5783 5781 5779 5776 5774 5772 5771 5769 5767 5765 5763 5762 5760 5758 5756 5755 5753 5751 5750 5748 5747 5745 5743 5741 5739 5738 5736 5734 5732 5730 5728 5726 5724 5721 5719 5717 5715 5714 5712 5709 5707 5704 5702 5699 5697 5695 5693 5690 5688 5686 5684 5682
5807 5804 5800 5797 5795 5793 5790 5789 5787 5785 5782 5780 5778 5776 5774 5772 5769 5768 5766 5764 5762 5761 5759 5757 5756 5754 5752 5750 5748 5747 5745 5744 5742 5740 5739 5737 5735 5733 5731 5729 5727 5726 5724 5722 5719 5717 5715 5713 5711 5709 5707 5704 5702 5700 5697 5695 5692 5690 5688 5686 5683 5681 5679
5804 5801 5798 5795 5792 5790 5788 5786 5784 5782 5780 5777 5775 5773 5771 5769 5767 5765 5763 5762 5760 5758 5757 5755 5753 5751 5749 5747 5746 5744 5742 5741 5739 5738 5736 5734 5733 5731 5729 5727 5725 5723 5721 5719 5717 5715 5712 5710 5708 5706 5703 5701 5698 5696 5693 5691 5689 5687 5684 5682 5680 5678 5676
5800 5798 5795 5792 5789 5787 5785 5783 5781 5779 5777 5775 5773 5770 5768 5766 5764 5762 5761 5759 5757 5756 5754 5753 5751 5749 5747 5745 5743 5741 5740 5738 5736 5735 5733 5732 5730 5728 5726 5725 5723 5721 5719 5717 5715 5712 5710 5707 5704 5702 5699 5697 5694 5692 5689 5686 5684 5682 5680 5678 5676 5674 5672